ONEWEB-0114, 47262

Orbit data source: Space-Track

ONEWEB-0114, 47262 is a payload satellite owned by One Web (UK) in LEO that was launched on Fri, 18 Dec 2020 UTC via a SOYUZ-2-1B launch vehicle from the Vostochny Cosmodrome (VOSTO). Payload-class satellites include a variety of spacecraft equipped with specific instruments for various scientific and technological missions. These include communications satellites like Starlink; space stations such as the ISS; scientific satellites like the Hubble; Earth observation satellites from companies like Planet Labs, Umbra, and HawkEye 360; GPS; miniature CubeSats for education and research; and military/defense satellites.

Loading next visibility...
Identifier
47262, 2020-100E
Orbit
LEO
Country
Flag of UKUK
Related business
Manufacturer
One Web
Mission
Operational Commercial Communications
Bus & Motor
ARROW, Unknown motor
Mass
148 kg wet, ~140 kg dry
Launch date (UTC)
2020-12-18 (5 years ago)
Launch vehicle
SOYUZ-2-1B
Launch site
Vostochny Cosmodrome (VOSTO)
Object type
Payload
Rocket body
Debris
Shape & HBR
Trap Box + 2 Pan, 6.7 m
Radar Cross Section
3.464 m², Large (>1 m²)

Expand to show TLE details & history
Last TLE update: 7 hours ago

TLE from 7 hours ago
0 ONEWEB-0114
1 47262U 20100E   26095.50026410  .00000413  00000-0  11124-2 0  9993
2 47262  87.9021   5.0904 0001682  69.2372 290.8936 13.12445638254986
Epoch: 2026-04-05T12:00Z
TLE epoch observation values (Epoch: 2026-04-05T12:00:22.818Z)
Latitude
-0.00007°
Longitude
-8.80947°
Altitude
1,216.149 km
Speed
7.246 km/s
True Right ascension
00h 20m 21s
True Declination
0° 00' 00"
Sunlit
Object was in daylight at epoch
Visualization orbit readout
Latitude
Unknown
Longitude
Unknown
Altitude
Unknown
Speed
Unknown
Apparent Right ascension
Unknown
Apparent Declination
Unknown
Sunlit
N/A
Visualization observer readout
Local Sidereal Time
00:48:27
Azimuth
Unknown
Elevation
Unknown
Doppler factor
Unknown
Orbital elements
Apogee altitude
1,212.106 km
Perigee altitude
1,209.553 km
Semi-major axis
7,588.967 km
Eccentricity
0.00017
Inclination
87.9021°
RAAN
5.0904°
Arg. of periapsis
69.2372°
True anomaly
290.87559°
Mean anomaly
290.8936°
Eccentric anomaly
290.8846°
Mean motion
3.28299 °/min
Orbital period
109.66 mins
BSTAR
0.0011124
Loading maneuver chart data...
Computing Atmospheric mass density...
Loading historical data...
Loading historical data...
Loading historical data...
Loading historical data...
Loading historical data...
Loading historical data...
Loading historical data...

Documentation

Showing up to 5 results
|